Flag Weather past 2 weeks in Las Cruces, New Mexico, U.S.A.

Now
34 °F

Sunny.


Feels Like: 34 °F
Forecast: 38 / 63 °F
Wind: No wind

Location: Las Cruces International

Current Time: Nov 27, 2014 at 7:27:59 AM

Latest Report: Nov 27, 2014 at 6:55 AM


Visibility: 10 mi

Pressure: 30.41 "Hg

Humidity: 55%

Dew point: 19 °F

Location of Las CrucesLocation

Historic Weather in Las Cruces — Graph

°F

Las Cruces temperature yesterday

Maximum temperature yesterday: 65 °F (at 3:35 PM)
Minimum temperature yesterday: 30 °F (at 5:55 AM)
Average temperature yesterday: 46 °F

Past Weeks' High & Low Weather Summary

 TemperatureHumidityPressure
High66 °F (Nov 20, 2:15 PM)89% (Nov 17, 6:35 AM)30.48 "Hg (Nov 17, 6:35 AM)
Low21 °F (Nov 17, 5:15 AM)8% (Nov 24, 2:15 PM)29.84 "Hg (Nov 23, 12:55 PM)
Average45 °F38%30.15 "Hg
* Reported Nov 12 6:15 AM — Nov 27 6:15 AM, Las Cruces, Weather by CustomWeather, © 2014

Note: Actual official high and low records may vary slightly from our data, if they occured in-between our weather recording intervals... More about our weather records

Advertising

Las Cruces weather history for previous 24 hours

 ConditionsComfort  
Time TempWeatherWind HumidityBarometerVisibility
6:15 AM
Nov 27
35 °FClear.No wind52%30.40 "Hg10 mi
5:55 AM36 °FClear.5 mph52%30.40 "Hg10 mi
5:35 AM35 °FClear.No wind51%30.39 "Hg10 mi
5:15 AM38 °FClear.No wind48%30.38 "Hg10 mi
4:55 AM35 °FClear.6 mph52%30.38 "Hg10 mi
4:35 AM36 °FClear.3 mph49%30.38 "Hg10 mi
4:15 AM38 °FClear.No wind46%30.38 "Hg10 mi
3:55 AM41 °FClear.5 mph42%30.38 "Hg10 mi
3:15 AM41 °FClear.No wind43%30.38 "Hg10 mi
2:55 AM36 °FClear.6 mph48%30.38 "Hg10 mi
2:35 AM36 °FClear.7 mph47%30.38 "Hg10 mi
2:15 AM36 °FClear.3 mph48%30.38 "Hg10 mi
1:15 AM41 °FClear.6 mph40%30.38 "Hg10 mi
12:55 AM38 °FClear.8 mph43%30.37 "Hg10 mi
12:35 AM40 °FClear.6 mph41%30.37 "Hg10 mi
12:15 AM39 °FClear.3 mph42%30.37 "Hg10 mi
11:55 PM
Nov 26
40 °FClear.5 mph39%30.37 "Hg10 mi
11:35 PM40 °FClear.6 mph41%30.37 "Hg10 mi
11:15 PM40 °FClear.6 mph40%30.37 "Hg10 mi
10:55 PM42 °FClear.5 mph36%30.36 "Hg10 mi
10:15 PM45 °FClear.5 mph33%30.35 "Hg10 mi
9:55 PM45 °FClear.No wind33%30.35 "Hg10 mi
9:35 PM45 °FClear.6 mph32%30.35 "Hg10 mi
9:15 PM48 °FClear.5 mph30%30.34 "Hg10 mi
8:55 PM48 °FClear.3 mph30%30.34 "Hg10 mi
8:35 PM44 °FClear.7 mph33%30.33 "Hg10 mi
8:15 PM46 °FClear.6 mph31%30.33 "Hg10 mi
7:55 PM46 °FClear.8 mph30%30.32 "Hg10 mi
7:35 PM47 °FClear.7 mph29%30.32 "Hg10 mi
7:15 PM47 °FClear.8 mph29%30.32 "Hg10 mi
6:55 PM48 °FClear.8 mph28%30.31 "Hg10 mi
6:15 PM51 °FClear.9 mph24%30.31 "Hg10 mi
5:55 PM52 °FClear.8 mph24%30.31 "Hg10 mi
5:15 PM57 °FClear.6 mph21%30.30 "Hg10 mi
4:55 PM61 °FSunny.3 mph18%30.30 "Hg10 mi
4:15 PM64 °FSunny.No wind16%30.30 "Hg10 mi
3:55 PM64 °FSunny.No wind15%30.29 "Hg10 mi
3:35 PM65 °FSunny.3 mph15%30.29 "Hg10 mi
3:15 PM64 °FSunny.No wind15%30.29 "Hg10 mi
2:55 PM65 °FSunny.No wind16%30.29 "Hg10 mi
2:15 PM64 °FSunny.No wind16%30.30 "Hg10 mi
1:55 PM63 °FSunny.3 mph16%30.30 "Hg10 mi
1:35 PM63 °FSunny.3 mph16%30.31 "Hg10 mi
1:15 PM62 °FSunny.No wind16%30.31 "Hg10 mi
12:55 PM62 °FSunny.No wind15%30.32 "Hg10 mi
12:35 PM60 °FSunny.No wind16%30.33 "Hg10 mi
12:15 PM60 °FSunny.No wind16%30.34 "Hg10 mi
11:55 AM59 °FSunny.3 mph16%30.35 "Hg10 mi
11:35 AM58 °FSunny.No wind16%30.36 "Hg10 mi
11:15 AM57 °FSunny.No wind16%30.36 "Hg10 mi
10:55 AM57 °FSunny.3 mph16%30.37 "Hg10 mi
10:35 AM55 °FSunny.3 mph17%30.38 "Hg10 mi
10:15 AM53 °FSunny.No wind17%30.39 "Hg10 mi
9:55 AM52 °FSunny.3 mph18%30.39 "Hg10 mi
9:35 AM50 °FSunny.3 mph18%30.39 "Hg10 mi
9:15 AM48 °FSunny.No wind20%30.39 "Hg10 mi
8:55 AM45 °FSunny.3 mph20%30.39 "Hg10 mi
8:35 AM43 °FSunny.5 mph21%30.37 "Hg10 mi
8:15 AM41 °FSunny.No wind24%30.37 "Hg10 mi
7:55 AM38 °FSunny.No wind26%30.36 "Hg10 mi
7:35 AM35 °FSunny.No wind29%30.36 "Hg10 mi
7:15 AM32 °FSunny.No wind32%30.36 "Hg10 mi
Weather by CustomWeather, © 2014

See weather overviewHow to use our weather pages